Location: Hilde
(52.9479°N, 6.4449°E)
Time: 15:52:16
(UTC+00:00)

Cosmos 2360 Rocket - Pass Details

Date: 15 May 2026
Orbit: 831 x 845 km, 71.0° (Epoch: 10 June)

Event Time Altitude Azimuth Distance (km) Brightness Sun altitude
Rises 19:59:57 0° 328° (NNW) 3,417 7.1 -4.9°
Reaches altitude 10° 20:02:30 10° 334° (NNW) 2,479 6.0 -5.2°
Maximum altitude 20:08:02 50° 50° (NE) 1,071 2.7 -5.8°
Drops below altitude 10° 20:13:32 10° 126° (SE) 2,464 4.0 -6.4°
Enters shadow 20:14:05 - 127° (SE) 2,669 4.1 -6.5°
